EW9502 Weather Reports


time (UTC)temp
C
wind
direction
speed
KPH
gust
KPH
rain 1hr
cm
rain 24hr
cm
rain mn
cm
humidity
%
barometer
mb
20260503210042 15 0.0 0.0 0.00 0.00 0.00 64 996.2
20260503204542 15 0.0 0.0 0.00 0.00 0.00 65 996.2
20260503203038 15 0.0 0.0 0.00 0.00 0.00 65 996.4
20260503201539 15 0.0 0.0 0.00 0.00 0.00 66 996.5
20260503200034 15 0.0 0.0 0.00 0.00 0.00 66 996.4
20260503194533 14 0.0 0.0 0.00 0.00 0.00 65 996.5
20260503193039 14 0.0 0.0 0.00 0.00 0.00 65 996.5
20260503191530 15 0.0 0.0 0.00 0.00 0.00 65 996.5
20260503190027 15 0.0 0.0 0.00 0.00 0.00 65 996.5
20260503184527 14 0.0 0.0 0.00 0.00 0.00 66 996.5
20260503183023 14 0.0 0.0 0.00 0.00 0.00 66 996.6
20260503181520 13 0.0 0.0 0.00 0.00 0.00 69 996.6
20260503180021 13 0.0 0.0 0.00 0.00 0.00 70 996.5
20260503174515 12 0.0 0.0 0.00 0.00 0.00 71 996.5
20260503173022 12 0.0 0.0 0.00 0.00 0.00 72 996.4
20260503171520 12 0.0 0.0 0.00 0.00 0.00 75 996.6
20260503081519 10 0.0 0.0 0.00 0.00 0.00 80 995.5
20260503071514 10 0.0 0.0 0.00 0.00 0.00 81 995.6
20260503054511 10 0.0 0.0 0.00 0.00 0.00 79 995.8
20260503053011 10 0.0 0.0 0.00 0.00 0.00 79 995.8
20260503051512 10 0.0 0.0 0.00 0.00 0.00 79 995.9
20260503050015 10 0.0 0.0 0.00 0.00 0.00 79 995.8
20260503044509 10 0.0 0.0 0.00 0.00 0.00 79 995.8
20260503043009 11 0.0 0.0 0.00 0.00 0.00 79 995.8
20260503041509 11 0.0 0.0 0.00 0.00 0.00 79 995.7
20260503040008 11 0.0 0.0 0.00 0.00 0.00 78 995.5
20260503034508 11 0.0 0.0 0.00 0.00 0.00 78 995.5
20260503033007 11 0.0 0.0 0.00 0.00 0.00 78 995.3
20260503031507 11 0.0 0.0 0.00 0.00 0.00 78 995.2
20260503030006 11 0.0 0.0 0.00 0.00 0.00 77 994.9
20260503024506 11 0.0 0.0 0.00 0.00 0.00 77 994.7
20260503023006 11 0.0 0.0 0.00 0.00 0.00 76 994.5
20260503021505 11 0.0 0.0 0.00 0.00 0.00 74 994.6
20260503020004 12 0.0 0.0 0.00 0.00 0.00 73 994.6
20260503014504 12 0.0 0.0 0.00 0.00 0.00 72 994.8
20260503013003 12 0.0 0.0 0.00 0.00 0.00 72 994.9
20260503011502 12 0.0 0.0 0.00 0.00 0.00 71 994.7
20260503010001 13 0.0 0.0 0.00 0.00 0.00 70 994.8
20260503004501 13 0.0 0.0 0.00 0.00 0.00 70 994.8
20260503003109 13 0.0 0.0 0.00 0.00 0.00 70 994.8
20260503001602 14 0.0 0.0 0.00 0.00 0.00 68 994.8
20260503000106 15 0.0 0.0 0.00 0.00 0.00 66 994.9
20260502234557 16 0.0 0.0 0.00 0.00 0.00 66 995.0
20260502233055 16 0.0 0.0 0.00 0.00 0.00 65 995.1
20260502231556 16 0.0 0.0 0.00 0.00 0.00 65 995.3
20260502230052 16 0.0 0.0 0.00 0.00 0.00 65 995.5
20260502224553 16 0.0 0.0 0.00 0.00 0.00 65 995.7
20260502223051 16 0.0 0.0 0.00 0.00 0.00 65 995.8
20260502221551 16 0.0 0.0 0.00 0.00 0.00 65 996.0
20260502220046 16 0.0 0.0 0.00 0.00 0.00 65 996.2
20260502214554 16 0.0 0.0 0.00 0.00 0.00 66 996.4
20260502213043 16 0.0 0.0 0.00 0.00 0.00 67 996.4
20260502211541 16 0.0 0.0 0.00 0.00 0.00 68 996.6